Weather History for Whiteville, NC

Change the Weather History Date:

Tuesday, September 4, 2012

  Actual Average (KLBT) Record (KLBT)
Temperature  
Mean Temperature 78 °F 76 °F  
Max Temperature 87 °F 86 °F 93 °F (2014)
Min Temperature 69 °F 66 °F 61 °F (2008)
Degree Days  
Heating Degree Days 0 0  
Month to date heating degree days 0  
Since 1 July heating degree days 0  
Cooling Degree Days 13 11  
Month to date cooling degree days 45  
Year to date cooling degree days 1617  
Growing Degree Days 28 (Base 50)    
Moisture  
Dew Point 70 °F    
Average Humidity 80    
Maximum Humidity 100    
Minimum Humidity 52    
Precipitation  
Precipitation 0.00 in 0.19 in 2.44 in (2000)
Month to date precipitation 0.71  
Year to date precipitation 31.10  
Sea Level Pressure  
Sea Level Pressure 30.00 in    
Wind  
Wind Speed 2 mph (South)    
Max Wind Speed 12 mph    
Max Gust Speed 17 mph    
Visibility 8 miles    
Events      
T = Trace of Precipitation, MM = Missing Value Source: NWS Daily Summary

Daily Weather History Graph

Daily Weather History Graph

Search for Another Location

Airport:

Trip Planner

Search our weather history database for the weather conditions in past years. The results will help you decide how hot, cold, wet, or windy it might be!

Date:

Astronomy

Sep. 04, 2012 Rise Set
Actual Time 6:50 AM EDT 7:36 PM EDT
Civil Twilight 6:25 AM EDT 8:01 PM EDT
Nautical Twilight 5:55 AM EDT 8:31 PM EDT
Astronomical Twilight 5:24 AM EDT 9:02 PM EDT
Moon 9:43 PM EDT (9/4) 10:41 AM EDT (9/4)
Length of Visible Light 13h 36m
Length of Day
12h 45m
Waning Gibbous, 84% of the Moon is Illuminated
Sep 4
Waning Gibbous
Sep 8
Last Quarter
Sep 15
New
Sep 22
First Quarter
Sep 29
Full

Hourly Weather History & Observations

Time (EDT) Temp. Heat Index Dew Point Humidity Pressure Visibility Wind Dir Wind Speed Gust Speed Precip Events Conditions
12:15 AM 73.4 °F - 71.6 °F 94% 30.04 in 5.0 mi Calm Calm - N/A   Clear
12:35 AM 71.6 °F - 71.6 °F 100% 30.03 in 5.0 mi Calm Calm - N/A   Clear
12:55 AM 71.6 °F - 71.6 °F 100% 30.03 in 5.0 mi Calm Calm - N/A   Clear
1:15 AM 71.6 °F - 71.6 °F 100% 30.03 in 5.0 mi Calm Calm - N/A   Clear
1:35 AM 71.6 °F - 71.6 °F 100% 30.02 in 4.0 mi Calm Calm - N/A   Clear
1:55 AM 71.6 °F - 71.6 °F 100% 30.02 in 7.0 mi Calm Calm - N/A   Clear
2:15 AM 71.6 °F - 69.8 °F 94% 30.02 in 5.0 mi Calm Calm - N/A   Clear
2:35 AM 71.6 °F - 69.8 °F 94% 30.01 in 5.0 mi Calm Calm - N/A   Clear
2:55 AM 71.6 °F - 71.6 °F 100% 30.01 in 7.0 mi Calm Calm - N/A   Clear
3:15 AM 71.6 °F - 71.6 °F 100% 30.01 in 4.0 mi Calm Calm - N/A   Clear
3:35 AM 71.6 °F - 71.6 °F 100% 30.01 in 5.0 mi Calm Calm - N/A   Clear
3:55 AM 71.6 °F - 69.8 °F 94% 30.01 in 4.0 mi Calm Calm - N/A   Clear
4:15 AM 71.6 °F - 69.8 °F 94% 30.01 in 3.0 mi Calm Calm - N/A   Mist
4:35 AM 71.6 °F - 69.8 °F 94% 30.00 in 7.0 mi Calm Calm - N/A   Clear
4:55 AM 71.6 °F - 71.6 °F 100% 30.00 in 7.0 mi Calm Calm - N/A   Clear
5:15 AM 69.8 °F - 69.8 °F 100% 30.00 in 5.0 mi Calm Calm - N/A   Clear
5:55 AM 71.6 °F - 69.8 °F 94% 30.01 in 5.0 mi Calm Calm - N/A   Clear
6:15 AM 69.8 °F - 69.8 °F 100% 30.02 in 7.0 mi Calm Calm - N/A   Clear
6:35 AM 69.8 °F - 69.8 °F 100% 30.02 in 7.0 mi Calm Calm - N/A   Clear
6:55 AM 69.8 °F - 69.8 °F 100% 30.03 in 5.0 mi Calm Calm - N/A   Clear
7:15 AM 69.8 °F - 69.8 °F 100% 30.03 in 5.0 mi Calm Calm - N/A   Clear
7:35 AM 69.8 °F - 69.8 °F 100% 30.04 in 7.0 mi Calm Calm - N/A   Clear
7:55 AM 71.6 °F - 69.8 °F 94% 30.04 in 7.0 mi Calm Calm - N/A   Clear
8:15 AM 73.4 °F - 71.6 °F 94% 30.04 in 10.0 mi Calm Calm - N/A   Clear
8:35 AM 77.0 °F - 73.4 °F 89% 30.04 in 10.0 mi Calm Calm - N/A   Clear
8:55 AM 78.8 °F - 73.4 °F 83% 30.04 in 10.0 mi SSW 4.6 mph - N/A   Scattered Clouds
9:15 AM 78.8 °F - 73.4 °F 83% 30.03 in 10.0 mi SSW 5.8 mph - N/A   Scattered Clouds
9:35 AM 80.6 °F 85.4 °F 73.4 °F 79% 30.03 in 10.0 mi South 6.9 mph - N/A   Clear
9:55 AM 80.6 °F 85.4 °F 73.4 °F 79% 30.03 in 10.0 mi SSW 5.8 mph - N/A   Scattered Clouds
10:15 AM 80.6 °F 85.4 °F 73.4 °F 79% 30.03 in 10.0 mi South 6.9 mph - N/A   Mostly Cloudy
10:35 AM 80.6 °F 84.6 °F 71.6 °F 74% 30.03 in 10.0 mi South 8.1 mph - N/A   Scattered Clouds
10:55 AM 82.4 °F 87.2 °F 71.6 °F 70% 30.03 in 10.0 mi South 5.8 mph - N/A   Scattered Clouds
11:15 AM 82.4 °F 87.2 °F 71.6 °F 70% 30.03 in 10.0 mi SSW 6.9 mph - N/A   Mostly Cloudy
11:35 AM 84.2 °F 89.6 °F 71.6 °F 66% 30.03 in 10.0 mi South 6.9 mph - N/A   Mostly Cloudy
12:15 PM 86.0 °F 90.4 °F 69.8 °F 58% 30.02 in 10.0 mi South 8.1 mph - N/A   Scattered Clouds
12:35 PM 86.0 °F 90.4 °F 69.8 °F 58% 30.01 in 10.0 mi SE 8.1 mph - N/A   Mostly Cloudy
12:55 PM 86.0 °F 89.4 °F 68.0 °F 55% 30.01 in 10.0 mi SSW 6.9 mph - N/A   Scattered Clouds
1:15 PM 86.0 °F 89.4 °F 68.0 °F 55% 30.01 in 10.0 mi South 10.4 mph - N/A   Clear
1:35 PM 86.0 °F 90.4 °F 69.8 °F 58% 30.01 in 10.0 mi SSE 8.1 mph - N/A   Scattered Clouds
1:55 PM 86.0 °F 89.4 °F 68.0 °F 55% 30.00 in 10.0 mi SSE 9.2 mph - N/A   Scattered Clouds
2:15 PM 87.8 °F 91.4 °F 68.0 °F 52% 29.99 in 10.0 mi SSE 10.4 mph - N/A   Scattered Clouds
2:35 PM 86.0 °F 89.4 °F 68.0 °F 55% 29.99 in 10.0 mi SSE 9.2 mph - N/A   Scattered Clouds
2:55 PM 87.8 °F 91.4 °F 68.0 °F 52% 29.98 in 10.0 mi SSW 11.5 mph 16.1 mph N/A   Clear
3:15 PM 87.8 °F 91.4 °F 68.0 °F 52% 29.97 in 10.0 mi South 9.2 mph - N/A   Scattered Clouds
3:35 PM 86.0 °F 89.4 °F 68.0 °F 55% 29.96 in 10.0 mi SE 10.4 mph 17.3 mph N/A   Scattered Clouds
3:55 PM 87.8 °F 91.4 °F 68.0 °F 52% 29.96 in 10.0 mi South 8.1 mph - N/A   Scattered Clouds
4:15 PM 86.0 °F 89.4 °F 68.0 °F 55% 29.96 in 10.0 mi SSE 6.9 mph 17.3 mph N/A   Clear
4:35 PM 86.0 °F 89.4 °F 68.0 °F 55% 29.95 in 10.0 mi SSE 9.2 mph - N/A   Clear
4:55 PM 86.0 °F 89.4 °F 68.0 °F 55% 29.95 in 10.0 mi SSE 11.5 mph - N/A   Clear
5:15 PM 86.0 °F 89.4 °F 68.0 °F 55% 29.95 in 10.0 mi SSE 8.1 mph - N/A   Clear
5:35 PM 84.2 °F 88.4 °F 69.8 °F 62% 29.95 in 10.0 mi SE 10.4 mph - N/A   Scattered Clouds
6:15 PM 82.4 °F 85.4 °F 68.0 °F 62% 29.96 in 10.0 mi South 8.1 mph - N/A   Clear
6:35 PM 82.4 °F 84.6 °F 66.2 °F 58% 29.96 in 10.0 mi SSE 8.1 mph - N/A   Clear
6:55 PM 80.6 °F 83.2 °F 68.0 °F 65% 29.96 in 10.0 mi SSE 4.6 mph - N/A   Clear
7:15 PM 80.6 °F 83.2 °F 68.0 °F 65% 29.96 in 10.0 mi South 4.6 mph - N/A   Clear
7:35 PM 78.8 °F - 69.8 °F 74% 29.96 in 10.0 mi Calm Calm - N/A   Clear
7:55 PM 78.8 °F - 69.8 °F 74% 29.96 in 10.0 mi Calm Calm - N/A   Clear
8:15 PM 77.0 °F - 69.8 °F 78% 29.96 in 10.0 mi Calm Calm - N/A   Clear
8:35 PM 77.0 °F - 69.8 °F 78% 29.97 in 10.0 mi Calm Calm - N/A   Clear
8:55 PM 77.0 °F - 69.8 °F 78% 29.98 in 10.0 mi Calm Calm - N/A   Clear
9:15 PM 77.0 °F - 69.8 °F 78% 29.98 in 10.0 mi Calm Calm - N/A   Clear
9:35 PM 75.2 °F - 71.6 °F 89% 29.98 in 10.0 mi Calm Calm - N/A   Clear
9:55 PM 75.2 °F - 71.6 °F 89% 29.98 in 10.0 mi SSE 3.5 mph - N/A   Clear
10:15 PM 75.2 °F - 71.6 °F 89% 29.98 in 10.0 mi Calm Calm - N/A   Clear
10:35 PM 75.2 °F - 71.6 °F 89% 29.98 in 10.0 mi South 3.5 mph - N/A   Clear
10:55 PM 73.4 °F - 71.6 °F 94% 29.98 in 10.0 mi Calm Calm - N/A   Clear
11:15 PM 73.4 °F - 71.6 °F 94% 29.98 in 10.0 mi Calm Calm - N/A   Clear
11:35 PM 73.4 °F - 71.6 °F 94% 29.98 in 10.0 mi Calm Calm - N/A   Clear
11:55 PM 73.4 °F - 71.6 °F 94% 29.98 in 10.0 mi Calm Calm - N/A   Clear